{"data":{"norad_id":69081,"epoch":"2026-09-20T04:22:43.711104Z","epoch_age_seconds":64762,"freshness":"FRESH","line1":"1 69081U 26104J   26263.18245036  .00000066  00000+0  83161-4 0  9999","line2":"2 69081  88.9902 331.7949 0002460 111.9359 248.2054 13.51022345 17974","mean_motion":13.51022345,"eccentricity":0.000246,"inclination_deg":88.9902,"raan_deg":331.7949,"arg_perigee_deg":111.9359,"mean_anomaly_deg":248.2054,"bstar":8.3161e-5,"rev_number":1797,"period_min":106.58594991632,"perigee_km":1066.6676033045,"apogee_km":1070.3313484507,"semimajor_km":7446.6364758776,"source":"CELESTRAK","updated_at":"2026-09-20T09:00:24.671274Z"}}